Location: Newark
(43.0000°N, 1.6781°W)
Time: 07:20:18
(UTC+00:00)

Courier 1B Rocket - Pass Details

Date: 22 April 2021
Orbit: 920 x 1202 km, 28.2° (Epoch: 09 May)

Event Time Altitude Azimuth Distance (km) Brightness Sun altitude
Rises 20:34:51 0° 243° (WSW) 3,683 8.4 -16.6°
Reaches altitude 10° 20:37:59 10° 229° (SW) 2,779 7.5 -17.1°
Maximum altitude 20:43:09 23° 179° (S) 2,042 6.3 -17.9°
Enters shadow 20:44:42 22° 161° (SSE) 2,144 6.3 -18.1°
